Faro current weather conditions

sailwx.info

Wind at 2 knots

Air temperature 20.0° C
Dewpoint 11.0° C

Last reported at 2015-Jul-04 01:30 UTC.
Time now 2015-Jul-04 03:23 UTC

Location: N 37°01' W 007°58'.
View on Google Maps.

See reports from other nearby stations

  
Tides and Currents Weather Stations Pressure Air Temp Water Temp Dewpoint Dewpoint Depression Visibility Wind Speed Wind Dir Waves Ship Positions
date/time (UTC)wind fromknots sea level pressurealtimeterstation pressurevisibilityair tempwater tempwave heightnotes
2015-Jul-04 02:30 340 3 21.0
2015-Jul-04 02:00 350 3 22.0
2015-Jul-04 01:30 20.0
2015-Jul-04 01:00 20.0
2015-Jul-04 00:30 21.0
2015-Jul-04 00:00 060 3 21.0
2015-Jul-03 23:30 320 3 22.0
2015-Jul-03 23:00 310 4 22.0
2015-Jul-03 22:30 290 4 23.0
2015-Jul-03 22:00 320 5 23.0
2015-Jul-03 21:30 320 8 24.0
2015-Jul-03 21:00 330 10 24.0
2015-Jul-03 20:30 320 11 25.0
2015-Jul-03 20:00 310 11 26.0
2015-Jul-03 19:30 280 8 24.0
2015-Jul-03 19:00 270 9 24.0
2015-Jul-03 18:30 270 11 24.0
2015-Jul-03 18:00 270 11 24.0
2015-Jul-03 17:30 270 12 26.0
2015-Jul-03 17:00 270 13 26.0
2015-Jul-03 16:30 260 14 26.0
2015-Jul-03 16:00 250 12 26.0
2015-Jul-03 15:30 260 12 26.0
2015-Jul-03 15:00 260 12 26.0
2015-Jul-03 14:30 260 12 26.0
2015-Jul-03 14:00 250 12 27.0
2015-Jul-03 13:30 260 13 25.0
2015-Jul-03 13:00 250 11 25.0
2015-Jul-03 12:30 250 11 25.0
2015-Jul-03 12:00 250 10 25.0
2015-Jul-03 11:30 250 9 25.0
2015-Jul-03 11:00 240 7 25.0
2015-Jul-03 10:30 250 8 25.0
2015-Jul-03 10:00 230 7 24.0
2015-Jul-03 09:30 210 5 24.0
2015-Jul-03 09:00 190 5 24.0
2015-Jul-03 08:30 130 5 25.0
2015-Jul-03 08:00 090 3 25.0
2015-Jul-03 07:30 050 5 24.0
2015-Jul-03 07:00 030 5 23.0
2015-Jul-03 06:30 020 3 22.0
2015-Jul-03 06:00 21.0
2015-Jul-03 05:30 20.0
2015-Jul-03 05:00 340 4 19.0
2015-Jul-03 04:30 030 3 21.0
2015-Jul-03 04:00 21.0
2015-Jul-03 03:30 020 4 21.0
2015-Jul-03 03:00 020 4 21.0
2015-Jul-03 02:30 330 3 20.0
2015-Jul-03 02:00 010 3 21.0
2015-Jul-03 01:30 010 4 21.0
2015-Jul-03 01:00 350 4 21.0
2015-Jul-03 00:30 010 8 22.0
2015-Jul-03 00:00 010 6 22.0
2015-Jul-02 23:30 360 7 23.0
2015-Jul-02 23:00 340 6 23.0
2015-Jul-02 22:30 300 4 22.0
2015-Jul-02 22:00 300 6 23.0
2015-Jul-02 21:30 320 5 24.0
2015-Jul-02 21:00 330 7 25.0
2015-Jul-02 20:30 280 8 25.0
2015-Jul-02 20:00 260 10 24.0
2015-Jul-02 19:30 260 12 25.0
2015-Jul-02 19:00 250 10 26.0
2015-Jul-02 18:30 250 12 24.0
2015-Jul-02 18:00 250 14 24.0
2015-Jul-02 17:30 250 12 25.0
2015-Jul-02 17:00 260 13 25.0
2015-Jul-02 16:30 260 13 25.0
2015-Jul-02 16:00 250 12 26.0
2015-Jul-02 15:30 240 11 25.0
2015-Jul-02 15:00 240 12 25.0
2015-Jul-02 14:30 250 12 24.0
2015-Jul-02 14:00 250 14 25.0
2015-Jul-02 13:30 250 15 25.0
2015-Jul-02 13:00 240 13 26.0
2015-Jul-02 12:30 250 13 27.0
2015-Jul-02 12:00 220 10 27.0
2015-Jul-02 11:30 230 9 26.0
2015-Jul-02 11:00 240 9 25.0
2015-Jul-02 10:30 230 8 25.0
2015-Jul-02 10:00 220 7 25.0
2015-Jul-02 09:30 24.0
2015-Jul-02 09:00 310 4 24.0
2015-Jul-02 08:30 360 6 23.0
2015-Jul-02 08:00 360 9 22.0
2015-Jul-02 07:30 21.0
2015-Jul-02 07:00 20.0
2015-Jul-02 06:30 080 3 19.0
2015-Jul-02 06:00 360 5 19.0
2015-Jul-02 05:30 350 4 18.0
2015-Jul-02 05:00 310 3 18.0
2015-Jul-02 04:30 280 4 18.0
2015-Jul-02 04:00 310 3 18.0
2015-Jul-02 03:30 330 3 19.0
2015-Jul-02 03:00 320 6 19.0